Weather Roundup
Issued by NWS Springfield, MO

Home | Current Version | Previous Version | Text Only | Print | Product List | Glossary On
Versions: 1 2 3 4 5 6 7 8 9 10 11 12 13 14 15 16 17 18 19 20 21 22 23 24 25 26 27 28 29 30 31 32 33 34 35 36 37 38 39 40 41 42 43 44 45 46 47 48 49 50
000
NZUS99 KSGF 020707
HRRSGF

HOURLY WEATHER
NATIONAL WEATHER SERVICE SPRINGFIELD MO
200 AM CDT SAT AUG 02 2014

......SGF CWA......

CITY           SKY/WX    TMP DP  RH WIND       PRES   REMARKS
SPRINGFIELD    CLOUDY    70  64  81 SE3       30.09S
JOPLIN         CLEAR     66  64  93 CALM      30.09S
WEST PLAINS    PTCLDY    64  61  90 CALM      30.11S
ROLLA          CLEAR     64  61  90 E6        30.09F
OSAGE BEACH      N/A     63  57  82 NE5       30.10S
BRANSON        CLEAR     66  64  94 CALM      30.10F

......SURROUNDING SGF CWA......

CITY           SKY/WX    TMP DP  RH WIND       PRES   REMARKS
CHANUTE        PTCLDY    65  63  93 CALM      30.09R
PARSONS        CLEAR     64  61  90 CALM      30.10R
COFFEYVILLE    CLEAR     66  63  90 CALM      30.08S
EMPORIA        MOCLDY    68  64  87 S6        30.09R
GROVE OK       CLEAR     66  66 100 CALM      30.09S FOG
ROGERS AR      CLEAR     67  64  90 SW3       30.11F
SILOAM SPRINGS CLEAR     64  59  82 CALM      30.11S
HARRISON AR    CLEAR     64  64 100 CALM      30.10S
NEAR YELLVILLE CLEAR     64  63  94 CALM      30.08F

......KANSAS AND MISSOURI......

CITY           SKY/WX    TMP DP  RH WIND       PRES   REMARKS
KANSAS CTY INT CLEAR     69  62  78 SE5       30.11S
DOWNTOWN KC    CLEAR     71  61  70 E5        30.09F
COLUMBIA       CLEAR     61  61 100 CALM      30.10F FOG
SEDALIA        CLEAR     66  60  81 SE3       30.11S
ST JOSEPH      CLEAR     63  61  93 NW3       30.11S
ST LOUIS       PTCLDY    66  60  81 N3        30.09F
SPIRIT OF STL  FOG       63  61  94 CALM      30.08S VSB 1/4
KIRKSVILLE     CLEAR     63  60  90 E3        30.12S
WICHITA        PTCLDY    67  64  90 SE6       30.08R
TOPEKA         CLEAR     69  64  84 E6        30.09S
OLATHE         MOCLDY    69  61  75 SE3       30.10S

......TENNESSEE......

CITY           SKY/WX    TMP DP  RH WIND       PRES   REMARKS
MEMPHIS        PTCLDY    74  65  73 N5        30.03F
NASHVILLE      CLOUDY    73  67  81 CALM      30.04F

......ARKANSAS.......

CITY           SKY/WX    TMP DP  RH WIND       PRES   REMARKS
FAYETTEVILLE   CLEAR     64  64 100 CALM      30.10F
FT SMITH       CLEAR     69  67  93 CALM      30.07S
LITTLE ROCK    PTCLDY    72  68  87 NW6       30.05S

......OKLAHOMA.......

CITY           SKY/WX    TMP DP  RH WIND       PRES   REMARKS
TULSA          CLEAR     69  64  84 CALM      30.06R
PONCA CITY     PTCLDY    72  65  78 S3        30.07S
MCALESTER      MOCLDY    65  64  97 CALM      30.08F FOG
OKLAHOMA CITY  PTCLDY    67  63  87 SW5       30.09S

......IOWA............

CITY           SKY/WX    TMP DP  RH WIND       PRES   REMARKS
DES MOINES     CLEAR     69  60  73 CALM      30.11F
QUAD CITIES    CLEAR     62  60  93 CALM      30.09F

......ILLINOIS........

CITY           SKY/WX    TMP DP  RH WIND       PRES   REMARKS
QUINCY         CLEAR     63  61  93 SE5       30.10S
CHICAGO        PTCLDY    64  53  67 W7        30.08S




USA.gov is the U.S. government's official web portal to all federal, state and local government web resources and services.